TimeWET,TemperatureF,Dew PointF,Humidity,Sea Level PressureIn,VisibilityMPH,Wind Direction,Wind SpeedMPH,Gust SpeedMPH,PrecipitationIn,Events,Conditions,WindDirDegrees,DateUTC
12:00 AM,50,46,79,30.28,6,East,9.2,,,,Clear,100,2013-02-07 00:00:00
12:00 AM,50.0,44.6,82,30.27,-9999.0,East,9.2,-,N/A,,Clear,100,2013-02-07 00:00:00
12:30 AM,48.2,44.6,87,30.24,-9999.0,East,8.1,-,N/A,,Clear,90,2013-02-07 00:30:00
1:00 AM,48.2,44.6,87,30.24,-9999.0,East,6.9,-,N/A,,Clear,90,2013-02-07 01:00:00
1:30 AM,46.4,44.6,93,30.24,-9999.0,ENE,4.6,-,N/A,,Clear,70,2013-02-07 01:30:00
2:00 AM,46.4,44.6,93,30.24,-9999.0,NE,3.5,-,N/A,,Clear,40,2013-02-07 02:00:00
2:30 AM,46.4,42.8,87,30.24,-9999.0,NNE,5.8,-,N/A,,Clear,30,2013-02-07 02:30:00
3:00 AM,45,43,89,30.28,6,NE,3.5,,,,Clear,40,2013-02-07 03:00:00
3:00 AM,44.6,42.8,93,30.24,-9999.0,NNE,3.5,-,N/A,,Clear,30,2013-02-07 03:00:00
3:30 AM,44.6,42.8,93,30.24,-9999.0,NE,5.8,-,N/A,,Clear,40,2013-02-07 03:30:00
4:00 AM,44.6,42.8,93,30.24,-9999.0,ENE,5.8,-,N/A,,Clear,60,2013-02-07 04:00:00
4:30 AM,44.6,42.8,93,30.21,-9999.0,ENE,5.8,-,N/A,,Clear,60,2013-02-07 04:30:00
5:00 AM,44.6,42.8,93,30.21,-9999.0,East,9.2,-,N/A,,Clear,80,2013-02-07 05:00:00
5:30 AM,42.8,41.0,93,30.21,-9999.0,East,6.9,-,N/A,,Clear,100,2013-02-07 05:30:00
6:00 AM,42.8,41.0,93,30.21,5.6,East,9.2,-,N/A,,Unknown,90,2013-02-07 06:00:00
6:30 AM,42.8,42.8,100,30.21,5.6,East,9.2,-,N/A,,Unknown,80,2013-02-07 06:30:00
7:00 AM,42.8,41.0,93,30.21,-9999.0,East,9.2,-,N/A,,Clear,80,2013-02-07 07:00:00
7:30 AM,41.0,41.0,100,30.21,5.0,East,8.1,-,N/A,,Unknown,90,2013-02-07 07:30:00
7:56 AM,42.8,41.0,93,30.21,1.2,East,8.1,-,N/A,,Mist,90,2013-02-07 07:56:00
8:00 AM,42.8,41.0,93,30.21,3.7,East,8.1,-,N/A,,Unknown,90,2013-02-07 08:00:00
8:30 AM,42.8,41.0,93,30.24,0.7,East,6.9,-,N/A,,Mist,90,2013-02-07 08:30:00
8:46 AM,47,44,87,30.28,1,East,6.9,,,,Mist,80,2013-02-07 08:46:00
9:00 AM,46.4,44.6,93,30.24,1.2,East,5.8,-,N/A,,Scattered Clouds,80,2013-02-07 09:00:00
9:22 AM,48.2,44.6,87,30.24,3.1,ESE,6.9,-,N/A,,Scattered Clouds,110,2013-02-07 09:22:00
9:30 AM,42.8,41.0,93,30.24,0.7,East,6.9,-,N/A,,Mist,90,2013-02-07 09:30:00
10:00 AM,50.0,44.6,82,30.24,4.3,East,8.1,-,N/A,,Unknown,90,2013-02-07 10:00:00
10:30 AM,53.6,42.8,67,30.24,5.0,ENE,8.1,-,N/A,,Unknown,70,2013-02-07 10:30:00
11:00 AM,57.2,42.8,59,30.24,5.0,ENE,8.1,-,N/A,,Unknown,70,2013-02-07 11:00:00
11:30 AM,57.2,42.8,59,30.24,5.0,NE,9.2,-,N/A,,Unknown,50,2013-02-07 11:30:00
12:00 PM,60,42,41,30.22,5,NE,8.1,,,,Clear,40,2013-02-07 12:00:00
12:00 PM,60.8,42.8,52,30.21,5.0,NE,8.1,-,N/A,,Unknown,40,2013-02-07 12:00:00
12:30 PM,60.8,42.8,52,30.21,5.0,NNE,5.8,-,N/A,,Unknown,30,2013-02-07 12:30:00
1:00 PM,64.4,41.0,42,30.21,5.0,ENE,6.9,-,N/A,,Unknown,60,2013-02-07 13:00:00
1:30 PM,66.2,41.0,40,30.18,-9999.0,NNE,6.9,-,N/A,,Clear,30,2013-02-07 13:30:00
2:00 PM,66.2,39.2,37,30.15,-9999.0,NE,11.5,-,N/A,,Clear,50,2013-02-07 14:00:00
2:30 PM,66.2,39.2,37,30.15,-9999.0,NE,9.2,-,N/A,,Clear,40,2013-02-07 14:30:00
3:00 PM,66.2,39.2,37,30.15,-9999.0,NE,9.2,-,N/A,,Clear,50,2013-02-07 15:00:00
3:30 PM,68.0,37.4,33,30.15,-9999.0,NE,6.9,-,N/A,,Clear,50,2013-02-07 15:30:00
4:00 PM,66.2,33.8,30,30.12,-9999.0,NE,8.1,-,N/A,,Clear,50,2013-02-07 16:00:00
4:30 PM,64.4,35.6,34,30.12,-9999.0,NE,6.9,-,N/A,,Clear,50,2013-02-07 16:30:00
5:00 PM,64.4,33.8,32,30.12,-9999.0,East,8.1,-,N/A,,Clear,90,2013-02-07 17:00:00
5:30 PM,62.6,33.8,34,30.12,-9999.0,East,6.9,-,N/A,,Clear,100,2013-02-07 17:30:00
6:00 PM,61,36,27,30.11,6,East,6.9,,,,Clear,100,2013-02-07 18:00:00
6:00 PM,60.8,35.6,39,30.12,-9999.0,East,8.1,-,N/A,,Clear,100,2013-02-07 18:00:00
6:30 PM,59.0,35.6,42,30.12,-9999.0,East,6.9,-,N/A,,Clear,100,2013-02-07 18:30:00
7:00 PM,57.2,37.4,48,30.12,-9999.0,NE,4.6,-,N/A,,Clear,40,2013-02-07 19:00:00
7:30 PM,57.2,35.6,44,30.12,-9999.0,Calm,Calm,-,N/A,,Clear,0,2013-02-07 19:30:00
8:00 PM,55.4,35.6,47,30.12,-9999.0,Calm,Calm,-,N/A,,Clear,0,2013-02-07 20:00:00
8:30 PM,55.4,35.6,47,30.12,-9999.0,NE,8.1,-,N/A,,Clear,40,2013-02-07 20:30:00
9:00 PM,55,37,40,30.13,6,NE,6.9,,,,Clear,50,2013-02-07 21:00:00
9:00 PM,55.4,37.4,51,30.12,-9999.0,NE,6.9,-,N/A,,Clear,50,2013-02-07 21:00:00
9:30 PM,53.6,37.4,54,30.12,-9999.0,ENE,8.1,-,N/A,,Clear,60,2013-02-07 21:30:00
10:00 PM,51.8,37.4,58,30.12,-9999.0,ENE,6.9,-,N/A,,Clear,70,2013-02-07 22:00:00
10:30 PM,48.2,37.4,66,30.12,-9999.0,ENE,6.9,-,N/A,,Clear,60,2013-02-07 22:30:00
11:00 PM,50.0,37.4,62,30.12,-9999.0,East,5.8,-,N/A,,Clear,90,2013-02-07 23:00:00
11:30 PM,48.2,37.4,66,30.12,-9999.0,East,8.1,-,N/A,,Clear,80,2013-02-07 23:30:00